Back to dashboard

Wuhan Weather News & Live Monitor

Live monitor data for Wuhan with Wunderground, NOAA, and AviationWeather sources, plus recent weather news headlines tied to this city.

Weather snapshot (America/New_York): 2026-05-09 05:36:06
News snapshot (America/New_York): 2026-05-09 04:48:24
Timezone: Asia/Shanghai
WU High Actual
N/A
WU High Today
25°C
WU High Forecast
26.7°C
NOAA Latest Temp
26.1°C
Aviation Latest Temp
25°C

NOAA24

Date/Time (L) Temp (C) Dew Point (C) Relative Humidity (%) Wind Speed (mph) Visibility (miles) Weather Clouds (x100 ft)
May 1, 5:00 pm 26.1°C 8.9°C 34 9 6.21 CLR
May 1, 4:00 pm 26.1°C 7.8°C 32 9 6.21 CLR
May 1, 3:00 pm 26.1°C 7.8°C 32 11 6.21 CLR
May 1, 2:00 pm 25°C 8.9°C 36 11 6.21 CLR
May 1, 1:00 pm 25°C 8.9°C 36 7 6.21 CLR
May 1, 12:00 pm 23.9°C 8.9°C 39 9 6.21 CLR
May 1, 11:00 am 22.8°C 8.9°C 41 9 6.21 CLR
May 1, 10:00 am 22.2°C 10°C 47 9 6.21 CLR
May 1, 9:00 am 18.9°C 12.2°C 64 7 6.21 CLR
May 1, 8:00 am 17.8°C 12.2°C 68 7 6.21 CLR
May 1, 7:00 am 16.1°C 12.2°C 77 7 6.21 CLR
May 1, 6:00 am 13.9°C 12.2°C 88 7 4.35
May 1, 5:00 am 15°C 12.2°C 82 7 6.21 CLR
May 1, 4:00 am 15°C 12.2°C 82 7 6.21 CLR
May 1, 3:00 am 16.1°C 11.1°C 72 7 6.21 CLR
May 1, 2:00 am 15°C 12.2°C 82 4 6.21 CLR
May 1, 1:00 am 13.9°C 12.8°C 94 2 6.21 CLR
May 1, 12:00 am 17.2°C 11.1°C 68 4 6.21 CLR
Apr 30, 11:00 pm 18.9°C 12.2°C 64 4 6.21 CLR
Apr 30, 10:00 pm 18.9°C 11.1°C 60 4 6.21 CLR
Apr 30, 9:00 pm 17.8°C 12.8°C 73 2 6.21 CLR
Apr 30, 8:00 pm 17.8°C 12.8°C 73 4 6.21 CLR
Apr 30, 7:00 pm 18.9°C 12.2°C 64 7 6.21 CLR
Apr 30, 6:00 pm 22.2°C 11.1°C 50 7 6.21 CLR
Apr 30, 5:00 pm 22.8°C 12.2°C 50 4 6.21 CLR
Apr 30, 4:00 pm 22.8°C 12.2°C 50 4 6.21 FEW040
Apr 30, 3:00 pm 22.2°C 12.8°C 57 7 6.21 FEW040
Apr 30, 2:00 pm 22.2°C 12.2°C 53 4 6.21 FEW040
Apr 30, 1:00 pm 21.1°C 11.1°C 53 4 6.21 FEW040
Apr 30, 12:00 pm 20°C 11.1°C 56 4 6.21 FEW040
Apr 30, 11:00 am 18.9°C 12.2°C 64 4 6.21 CLR
Apr 30, 10:00 am 17.8°C 12.8°C 73 4 6.21 CLR
Apr 30, 9:00 am 17.2°C 12.8°C 77 4 6.21 CLR
Apr 30, 8:00 am 16.1°C 13.9°C 88 4G18 4.97
Apr 30, 7:00 am 13.9°C 13.9°C 100 2 2.49 Mist
Apr 30, 6:00 am 11.1°C 11.1°C 100 4 3.11 Mist
Apr 30, 5:00 am 11.1°C 11.1°C 100 2 3.73
Apr 30, 4:00 am 11.1°C 11.1°C 100 2 6.21 CLR
Apr 30, 3:00 am 11.1°C 11.1°C 100 4 6.21 CLR
Apr 30, 2:00 am 12.8°C 11.1°C 88 4 6.21 CLR
Apr 30, 1:00 am 13.9°C 11.1°C 82 4 6.21 CLR
Apr 30, 12:00 am 12.8°C 11.1°C 88 4 6.21 CLR
Apr 29, 11:00 pm 13.9°C 12.2°C 88 4 6.21 CLR
Apr 29, 10:00 pm 13.9°C 11.1°C 82 4 6.21 CLR
Apr 29, 9:00 pm 15°C 11.1°C 77 4 6.21 CLR
Apr 29, 8:00 pm 16.1°C 10°C 68 4 6.21 CLR
Apr 29, 7:00 pm 17.2°C 10°C 63 4 6.21 CLR
Apr 29, 6:00 pm 18.9°C 11.1°C 60 7 6.21 CLR

AviationWeather

Time Temp (C) Dew (C) RH Wind Weather Clouds Vis
2026-05-09 09:00:00Z 25°C 14°C 240 6+
2026-05-09 08:00:00Z 26°C 15°C 230 6+
2026-05-09 07:00:00Z 26°C 15°C 240 6+
2026-05-09 06:00:00Z 25°C 14°C 250 6+
2026-05-09 05:00:00Z 25°C 15°C VRB 6+
2026-05-09 04:00:00Z 24°C 15°C 220 6+
2026-05-09 03:02:00Z 200 0.63
2026-05-09 03:00:00Z 23°C 15°C VRB 6+
2026-05-09 02:00:00Z 22°C 15°C VRB 6+
2026-05-09 01:00:00Z 21°C 14°C 210 6+
2026-05-09 00:00:00Z 19°C 15°C 230 6+
2026-05-08 23:00:00Z 19°C 17°C 220 3.73
2026-05-08 22:00:00Z 16°C 16°C VRB 3.73
2026-05-08 21:00:00Z 16°C 16°C 210 6+
2026-05-08 20:00:00Z 16°C 16°C VRB 6+
2026-05-08 19:00:00Z 18°C 16°C VRB 6+
2026-05-08 18:00:00Z 17°C 16°C VRB 6+
2026-05-08 17:00:00Z 18°C 17°C 220 6+
2026-05-08 16:00:00Z 18°C 17°C 0 6+
2026-05-08 15:00:00Z 17°C 16°C 0 6+
2026-05-08 14:00:00Z 17°C 16°C 340 6+
2026-05-08 13:00:00Z 19°C 17°C 0 6+
2026-05-08 12:00:00Z 19°C 15°C VRB 6+
2026-05-08 11:00:00Z 19°C 15°C 300 6+
2026-05-08 10:00:00Z 21°C 15°C VRB 6+

Latest Wuhan Weather News